Weather History for Springfield, CO

Change the Weather History Date:

Sunday, June 16, 2013

  Actual Average Record
Temperature  
Mean Temperature 72 °F -  
Max Temperature 85 °F 87 °F 100 °F (2011)
Min Temperature 58 °F 57 °F 48 °F (2000)
Degree Days  
Heating Degree Days 0 0  
Month to date heating degree days 19 19  
Since 1 June heating degree days 19 19  
Since 1 July heating degree days 5211 5281  
Cooling Degree Days 7 7  
Month to date cooling degree days 156 86  
Year to date cooling degree days 273 140  
Since 1 June cooling degree days 156 86  
Growing Degree Days 20 (Base 50)    
Moisture  
Dew Point 57 °F    
Average Humidity 67    
Maximum Humidity 93    
Minimum Humidity 40    
Precipitation  
Precipitation 0.85 in 0.08 in 0.85 in (2013)
Month to date precipitation 1.58 1.38  
Year to date precipitation 3.56 6.95  
Sea Level Pressure  
Sea Level Pressure 29.92 in    
Wind  
Wind Speed 12 mph (South)    
Max Wind Speed 40 mph    
Max Gust Speed 48 mph    
T = Trace of Precipitation, MM = Missing Value Source: NWS Daily Summary

Daily Weather History Graph

Daily Weather History Graph

Search for Another Location

Airport:

Trip Planner

Search our weather history database for the weather conditions in past years. The results will help you decide how hot, cold, wet, or windy it might be!

Date:

Astronomy

Jun. 16, 2013 Rise Set
Actual Time 5:29 AM MDT 8:13 PM MDT
Civil Twilight 4:58 AM MDT 8:44 PM MDT
Nautical Twilight 4:19 AM MDT 9:22 PM MDT
Astronomical Twilight 3:36 AM MDT 10:06 PM MDT
Moon 12:58 PM MDT (6/16) 12:27 AM MDT (6/16)
Length of Visible Light 15h 45m
Length of Day
14h 43m
Waxing Crescent, 50% of the Moon is Illuminated
Jun 16
Waxing Crescent
Jun 23
Full
Jun 29
Last Quarter
Jul 8
New
Jul 15
First Quarter

Hourly Weather History & Observations

Time (MDT) Temp. Heat Index Dew Point Humidity Pressure Visibility Wind Dir Wind Speed Gust Speed Precip Events Conditions
12:56 AM 66.0 °F - 53.1 °F 63% 29.91 in - ESE 9.2 mph - N/A   Unknown
1:56 AM 64.0 °F - 53.1 °F 67% 29.88 in - SE 18.4 mph - N/A   Unknown
2:56 AM 61.0 °F - 57.0 °F 87% 29.94 in - ESE 13.8 mph 17.3 mph 0.03 in   Unknown
3:16 AM 57.2 °F - 57.2 °F 100% 30.12 in - SE 9.2 mph - 0.81 in   Unknown
3:56 AM 60.1 °F - 57.9 °F 93% 29.91 in - SE 10.4 mph - 0.82 in   Unknown
4:56 AM 61.0 °F - 57.9 °F 90% 29.90 in - SSE 8.1 mph - N/A   Unknown
5:56 AM 61.0 °F - 57.9 °F 90% 29.93 in - South 8.1 mph - N/A   Unknown
6:56 AM 62.1 °F - 59.0 °F 90% 29.95 in - SW 6.9 mph - N/A   Unknown
7:56 AM 64.9 °F - 59.0 °F 81% 29.96 in - SSW 13.8 mph - N/A   Unknown
8:56 AM 69.1 °F - 59.0 °F 70% 29.95 in - SW 12.7 mph - N/A   Unknown
9:56 AM 73.9 °F - 55.9 °F 53% 29.94 in - SW 12.7 mph 19.6 mph N/A   Unknown
10:56 AM 78.1 °F - 55.9 °F 46% 29.92 in - SW 20.7 mph 26.5 mph N/A   Unknown
11:56 AM 80.1 °F 80.2 °F 55.9 °F 43% 29.91 in - SW 16.1 mph 25.3 mph N/A   Unknown
12:56 PM 82.0 °F 81.6 °F 55.9 °F 41% 29.90 in - South 10.4 mph - N/A   Unknown
1:56 PM 84.0 °F 83.5 °F 57.9 °F 41% 29.88 in - South 13.8 mph 18.4 mph N/A   Unknown
2:56 PM 84.9 °F 84.8 °F 60.1 °F 43% 29.85 in - South 15.0 mph 19.6 mph N/A   Unknown
3:56 PM 82.9 °F 82.8 °F 59.0 °F 44% 29.84 in - South 12.7 mph - N/A   Unknown
4:56 PM 82.9 °F 83.2 °F 60.1 °F 46% 29.81 in - South 16.1 mph - N/A   Unknown
5:56 PM 81.0 °F 81.3 °F 59.0 °F 47% 29.80 in - SSW 11.5 mph - N/A   Unknown
6:38 PM 62.6 °F - 55.4 °F 77% 30.04 in - North 28.8 mph 48.3 mph N/A   Unknown
6:56 PM 64.0 °F - 55.9 °F 75% 29.93 in - North 16.1 mph 32.2 mph N/A   Unknown
7:56 PM 66.0 °F - 55.0 °F 68% 29.89 in - NNE 24.2 mph - N/A   Unknown
8:56 PM 66.0 °F - 55.0 °F 68% 29.90 in - Calm Calm - N/A   Unknown
9:56 PM 62.1 °F - 57.0 °F 84% 29.91 in - NW 4.6 mph - N/A   Unknown
10:56 PM 61.0 °F - 55.9 °F 83% 29.96 in - East 13.8 mph - N/A   Unknown
11:56 PM 59.0 °F - 57.0 °F 93% 29.95 in - SE 3.5 mph - N/A   Unknown